Regional Weather Roundup
Issued by NWS Northern Indiana

Home | Current Version | Previous Version | Text Only | Print | Product List | Glossary Off
Versions: 1 2 3 4 5 6 7 8 9 10 11 12 13 14 15 16 17 18 19 20 21 22 23 24 25 26 27 28 29 30 31 32 33 34 35 36 37 38 39 40 41 42 43 44 45 46 47 48 49 50

000
ASUS43 KIWX 131600
RWRIWX

KIWX WEATHER ROUNDUP
NATIONAL WEATHER SERVICE NORTHERN INDIANA
1200 PM EDT SUN JUL 13 2014

NOTE: "FAIR" INDICATES FEW OR NO CLOUDS BELOW 12,000 FEET WITH NO
SIGNIFICANT WEATHER AND/OR OBSTRUCTIONS TO VISIBILITY.

* THESE STATIONS ARE NOT UNDER NWS QUALITY CONTROL. THEY ALSO MAY NOT
  REPORT WEATHER SUCH AS PRECIPITATION OR FOG.

INZ001>027-131700-
NORTHERN INDIANA

CITY           SKY/WX    TMP DP  RH WIND       PRES   REMARKS
VALPARAISO     PTSUNNY   74  65  73 NW7       29.95F
KNOX*          PTSUNNY   76  67  73 NW7       29.94S
SOUTH BEND     PTSUNNY   74  63  68 NW8       29.96R
GOSHEN         MOSUNNY   76  65  68 W7        29.94R
MONTICELLO*    PTSUNNY   76  71  82 N12       29.94S
WARSAW*        PTSUNNY   77  68  73 NW10      29.94S
ANGOLA*        SUNNY     77  66  69 N7        29.93R
FORT WAYNE     PTSUNNY   81  69  67 W14G20    29.94R
PERU/GRISSOM   PTSUNNY   79  75  89 NW13      29.94R

$$
INZ028>050-131700-
CENTRAL INDIANA

CITY           SKY/WX    TMP DP  RH WIND       PRES   REMARKS
LAFAYETTE      CLOUDY    76  69  79 NW13      29.95R
KOKOMO*        CLOUDY    77  70  78 NW12      29.95R
MUNCIE*        PTSUNNY   80  68  66 W17       29.96S
INDIANAPOLIS   CLOUDY    81  69  67 W10       29.96S

$$
MIZ043>046-050>051-056>058-064>065-071>073-077>080-131700-
SOUTHWEST LOWER MICHIGAN

CITY           SKY/WX    TMP DP  RH WIND       PRES   REMARKS
BATTLE CREEK   PTSUNNY   74  65  73 W10       29.92S
BENTON HARBOR  PTSUNNY   70  65  84 W7        29.94S
COLDWATER*     PTSUNNY   75  65  71 W10       29.93R
HILLSDALE*     PTSUNNY   76  66  71 W12       29.92S
HOLLAND        CLOUDY    72  65  78 W10       29.93R
GRAND RAPIDS   PTSUNNY   75  65  70 W15       29.90R
KALAMAZOO      PTSUNNY   73  65  75 W8        29.93R
STURGIS*       PTSUNNY   73  64  73 W7        29.93R
THREE RIVERS*  FAIR      73  67  79 NW10      29.94R

$$
OHZ001>008-015>018-024>025-131700-
NORTHWEST OHIO

CITY           SKY/WX    TMP DP  RH WIND       PRES   REMARKS
DEFIANCE       CLOUDY    80  67  64 NW9G18    29.91S
FINDLAY        PTSUNNY   81  70  69 W17G25    29.90F
TOLEDO EXPRESS CLOUDY    78  68  71 W14G20    29.90R
TOLEDO METCALF CLOUDY    78  68  71 W14G21    29.90S
LIMA           PTSUNNY   80  70  71 W16       29.94S

$$
&&



USA.gov is the U.S. government's official web portal to all federal, state and local government web resources and services.